RH
14 10 14 18 16 16 18 16 18 23 26 22 24 24 23 23 22 20 22 23 23 24 23 20 17 14 8 13 24 29 38 39 38 32 23 36 29 17 11 11 45 49 44 66 71
20 15 9 11 13 12 14 15 15 21 26 28 23 25 25 25 23 22 24 23 24 26 27 25 21 15 9 19 23 33 39 52 50 42 35 38 29 20 13 12 25 47 46 65 80
24 16 11 19 13 7 8 10 10 17 25 30 32 28 27 30 27 26 25 24 26 28 31 29 25 13 10 22 35 44 37 38 54 54 37 38 28 22 13 10 25 48 51 66 77
24 21 19 23 19 14 12 11 9 14 24 28 33 33 32 32 32 32 29 29 28 31 34 35 31 18 10 18 29 57 61 51 47 45 54 40 33 22 14 10 18 42 52 72 68
18 20 21 20 20 20 20 18 14 18 26 28 36 35 37 38 34 34 34 33 32 34 37 42 40 27 13 16 26 52 70 66 58 47 60 42 31 23 14 10 13 34 48 61 75
26 27 22 23 23 23 27 27 22 22 29 29 38 40 42 42 40 38 38 38 37 36 42 45 47 43 19 14 21 43 68 70 70 63 56 45 28 19 14 10 12 34 47 83 70
22 31 39 28 25 26 28 34 34 32 28 29 41 39 47 50 48 44 42 44 42 42 45 49 54 58 42 18 18 27 67 80 79 68 62 51 33 19 20 12 19 60 44 84 92
19 34 52 41 32 29 31 36 47 52 40 32 46 46 43 56 56 52 49 46 47 48 52 54 56 59 66 37 21 28 62 85 80 81 57 43 43 35 21 17 37 55 70 88 92
28 21 34 52 45 38 34 37 47 55 60 48 48 54 42 50 56 58 60 54 49 51 57 59 56 54 59 74 36 25 37 72 92 80 75 53 42 42 20 32 55 49 65 84 96
61 44 31 33 42 46 53 44 40 50 74 53 49 53 57 49 51 63 64 63 60 51 59 61 61 58 60 66 61 20 28 46 61 78 73 64 44 40 29 37 42 78 70 73 95
63 68 66 52 57 70 63 71 48 45 67 77 72 63 59 65 62 60 70 68 68 59 56 60 58 59 59 56 75 48 21 34 53 58 68 63 36 52 38 52 81 75 88 80 60
73 88 86 81 56 51 89 89 76 58 70 80 69 78 52 63 70 62 70 75 78 73 59 60 58 61 61 64 64 82 28 30 50 52 57 68 33 52 63 52 67 91 83 66 55
82 95 92 94 94 68 85 90 91 66 67 77 70 69 56 56 67 72 67 77 84 80 73 57 60 63 67 64 70 68 76 24 37 53 49 53 29 48 71 56 77 69 84 76 56
98 96 92 97 88 88 90 93 95 74 65 65 72 78 58 57 62 69 75 74 78 80 77 65 58 62 65 65 63 64 79 49 28 53 71 65 35 43 61 44 58 70 67 87 80
100 99 63 96 79 78 86 92 89 82 77 64 69 68 67 56 58 65 74 81 79 74 79 74 60 61 61 61 61 66 68 74 26 30 58 58 42 42 38 37 38 52 58 58 59
53 52 60 86 68 74 71 78 76 65 83 73 68 72 69 60 50 56 71 81 79 76 74 77 61 57 55 60 61 66 67 68 74 34 30 52 47 31 29 28 31 36 43 71 56
42 48 60 56 66 67 69 73 75 77 82 75 74 80 73 53 50 55 67 81 83 77 74 79 68 59 57 62 62 69 69 63 70 69 32 25 35 36 31 28 26 28 35 36 44
41 46 47 49 63 60 62 72 74 77 77 73 79 87 81 68 58 67 74 86 88 86 75 69 74 65 57 49 50 53 60 61 61 70 64 34 22 25 26 28 27 25 24 23 22
33 32 35 40 52 58 62 53 62 67 69 75 75 77 86 82 78 84 86 88 88 91 81 72 78 74 66 59 50 57 54 62 65 66 68 69 49 21 16 21 23 23 22 20 16
28 23 25 26 44 56 58 57 60 64 70 72 76 76 77 82 89 94 96 96 93 94 90 80 67 76 66 59 58 50 56 57 57 58 56 68 64 64 54 38 13 18 21 21 21
28 24 26 25 35 48 57 67 66 66 69 68 70 73 80 88 99 97 96 95 96 99 96 91 74 79 70 58 63 52 53 54 46 49 53 52 53 53 57 56 41 28 12 10 15
27 26 22 25 31 45 58 67 67 70 67 69 79 90 92 93 96 97 98 98 96 95 93 88 75 74 68 61 60 66 45 48 52 51 54 47 50 46 35 34 42 49 43 35 29
20 29 23 23 25 40 57 62 61 66 68 65 67 75 81 86 88 94 99 96 97 96 86 79 78 73 73 68 62 70 55 49 44 49 56 51 50 40 31 50 45 39 40 48 53
18 22 31 27 26 32 49 54 52 51 51 50 54 58 65 75 79 88 95 95 95 90 82 75 78 76 77 82 60 72 66 59 58 57 52 51 50 40 41 41 46 45 45 48 46
20 23 28 30 33 21 32 33 40 45 46 45 53 51 52 55 66 80 84 96 92 82 77 71 79 74 79 89 79 77 75 68 68 62 52 44 39 37 40 34 36 38 37 38 41
17 27 35 24 28 27 31 38 36 37 31 41 42 44 42 42 54 72 82 77 76 76 66 70 79 79 90 87 79 79 75 72 67 59 47 46 44 41 38 35 32 30 31 30 28
20 24 30 31 35 34 35 31 32 41 38 38 38 41 37 44 52 55 59 56 61 67 69 71 69 67 73 78 78 78 82 83 75 78 65 57 49 44 42 40 35 32 30 30 30
Wind_Speed
14 16 16 17 19 21 22 24 27 29 27 23 21 20 20 20 20 22 24 25 28 29 31 33 35 37 36 33 32 29 27 25 27 33 34 37 44 48 59 63 64 63 63 56 53
15 17 17 19 20 21 23 25 25 28 31 27 26 24 23 24 25 25 25 26 27 29 31 32 36 38 34 31 27 26 23 23 23 26 29 32 41 44 53 61 64 65 64 58 51
18 18 17 20 22 22 23 24 26 27 30 34 31 28 27 26 25 25 27 28 28 30 32 31 34 35 32 31 27 23 22 22 18 20 21 27 36 40 47 60 65 66 64 58 50
17 18 19 19 21 21 23 24 25 25 29 33 33 32 31 31 32 29 30 31 30 31 32 31 33 35 30 30 30 22 23 21 16 17 20 24 31 34 44 58 66 65 63 57 49
19 19 20 22 22 22 23 24 24 25 29 32 35 34 33 33 32 32 32 34 33 34 32 31 32 33 31 28 28 29 19 17 17 15 17 20 25 30 41 58 66 66 63 58 49
17 21 22 22 22 23 23 23 24 25 28 30 35 33 34 35 34 33 34 35 35 34 35 32 32 34 32 29 25 26 22 18 13 14 15 18 24 26 40 57 66 65 62 54 56
19 21 22 23 23 23 22 23 24 25 28 29 34 33 33 34 35 34 35 37 37 36 36 35 34 35 34 31 28 25 25 19 15 11 10 16 23 24 42 57 64 59 64 54 52
20 20 23 23 23 23 22 21 23 29 27 27 32 33 32 34 34 35 37 37 37 37 37 36 34 32 31 33 30 27 21 19 15 7 10 14 22 29 40 55 59 61 63 62 47
24 24 23 24 25 24 23 23 24 25 26 28 30 33 31 32 35 33 35 37 38 38 39 38 34 34 34 30 31 28 23 17 16 11 8 13 20 29 36 50 55 59 61 61 61
25 27 26 26 26 27 25 25 23 24 29 27 30 32 30 31 33 33 33 34 36 38 38 37 33 33 32 32 31 28 23 17 14 12 7 10 15 30 30 43 54 51 56 65 64
23 26 28 29 29 32 27 25 25 24 28 29 29 30 31 31 32 32 31 33 34 37 37 37 34 32 34 33 32 30 25 20 13 8 4 3 12 25 26 32 46 51 51 54 62
21 23 26 29 29 30 29 30 24 27 25 30 32 28 29 30 31 31 31 32 33 33 35 37 34 34 33 34 33 30 27 21 14 9 3 2 8 20 18 24 32 48 49 55 58
24 24 27 29 28 31 34 32 25 26 27 27 29 24 28 29 32 31 30 31 31 32 33 35 35 34 31 27 28 29 26 22 16 9 9 11 9 17 13 9 18 38 41 53 58
29 29 29 27 26 28 31 36 29 26 27 26 23 28 26 30 30 33 32 33 35 32 31 32 33 33 30 28 28 28 27 25 18 13 10 14 14 18 9 8 7 18 41 40 47
31 32 32 28 29 28 28 28 24 25 30 23 26 23 28 30 31 31 33 34 30 31 30 29 28 27 28 30 29 28 25 24 21 14 8 8 10 16 14 10 4 11 26 24 38
31 34 30 29 25 26 25 26 26 25 27 24 23 26 28 31 32 31 31 34 30 26 27 28 28 26 27 28 27 25 22 20 19 15 9 6 8 11 14 12 7 7 14 20 11
35 31 30 23 18 20 22 27 26 26 26 23 25 26 28 31 31 31 30 32 31 27 21 25 26 26 22 22 23 20 14 15 18 19 14 9 5 9 12 11 10 10 13 21 17
35 33 25 17 16 18 23 27 27 26 29 27 26 27 29 31 30 30 31 32 32 32 27 22 25 25 23 21 23 23 24 22 21 19 17 13 6 7 10 10 10 8 7 11 16
30 28 26 17 15 16 20 25 26 27 29 29 29 30 27 29 32 33 34 34 33 33 30 27 21 24 25 20 18 19 17 19 13 14 16 14 12 11 4 5 6 9 13 15 19
27 24 24 21 18 17 20 23 25 27 30 32 32 32 30 29 31 35 34 34 33 35 33 27 18 25 22 20 17 17 14 14 14 13 16 14 12 10 7 5 4 11 13 17 20
28 22 23 24 21 21 22 19 21 25 28 33 33 33 32 32 32 33 35 36 34 33 34 31 19 19 23 17 17 11 12 10 11 11 13 11 8 9 7 5 3 2 7 13 19
28 25 25 23 21 21 20 23 28 30 34 36 37 36 36 37 34 35 36 36 34 34 33 31 23 16 16 17 17 15 9 8 9 11 11 15 13 11 8 8 6 10 11 11 12
28 24 22 22 23 21 22 25 28 32 29 32 34 36 36 36 37 37 36 34 33 32 30 30 24 20 12 16 15 16 11 8 8 12 13 15 19 20 15 17 16 12 11 14 19
29 26 24 22 23 23 23 25 29 29 28 29 30 32 33 32 33 34 33 30 28 27 28 28 20 25 24 16 10 14 16 15 15 13 10 16 23 28 23 21 23 25 25 24 23
30 27 27 22 22 28 24 24 27 29 29 27 25 27 29 30 31 29 28 27 25 25 24 23 15 19 18 20 8 13 17 20 22 22 22 22 19 20 26 25 27 28 31 32 33
31 30 26 22 22 29 28 24 25 27 27 27 25 24 26 29 27 26 24 24 21 20 22 20 18 15 11 22 17 15 23 23 23 27 29 29 29 27 31 33 32 29 32 34 36
32 30 27 23 24 27 31 28 25 26 28 26 25 25 27 29 28 28 26 23 21 19 17 18 22 20 12 23 23 26 28 30 33 35 36 36 35 36 37 39 38 38 38 40 42
Wind_Direction
15 9 6 4 2 4 7 11 11 9 7 6 4 355 352 347 341 342 336 335 329 329 332 337 341 344 336 324 318 311 303 287 270 253 246 244 237 227 221 207 206 211 216 221 218
7 6 2 357 353 352 354 356 1 6 5 4 3 3 360 358 355 348 343 340 337 336 340 347 347 350 340 327 322 312 302 289 282 265 246 246 240 229 218 204 204 208 213 216 216
357 359 5 2 359 353 350 349 352 358 5 5 2 1 1 2 358 354 353 347 346 346 347 350 352 351 341 330 322 317 300 291 286 257 248 248 236 230 213 202 201 204 211 214 214
350 351 348 350 351 353 352 349 349 353 357 359 360 360 360 1 360 359 355 354 352 353 351 353 356 354 344 331 330 321 312 298 279 268 257 239 227 226 208 200 199 203 210 211 210
344 346 344 346 345 351 354 354 353 352 355 355 359 356 356 359 358 358 359 358 357 357 357 354 357 356 350 337 335 344 338 316 285 273 253 237 218 217 202 197 197 203 209 211 210
340 341 339 339 341 342 345 351 351 349 351 352 355 356 352 354 358 359 357 360 2 359 3 357 357 357 353 347 344 341 343 348 338 276 256 221 215 212 198 195 196 202 206 209 211
328 332 333 333 335 338 341 346 344 348 347 350 352 353 352 352 354 356 359 2 3 360 2 1 358 354 356 353 349 343 347 341 334 299 247 225 211 200 198 194 199 202 204 208 211
318 322 322 325 328 331 335 335 340 339 342 346 349 350 349 350 352 353 357 1 0 0 0 359 360 355 357 356 353 351 347 341 342 317 254 226 197 205 200 194 198 203 206 208 208
319 313 314 320 321 325 328 329 334 336 339 342 344 346 345 347 351 352 355 356 358 357 1 358 355 359 0 0 357 352 347 339 333 331 257 242 208 197 202 197 202 207 209 209 216
321 316 313 312 313 316 320 324 324 331 337 334 337 340 343 345 347 350 352 353 357 355 359 358 358 2 358 1 2 4 359 346 335 310 292 244 214 200 200 198 202 207 211 212 214
318 322 320 314 313 313 311 314 318 320 326 329 330 335 340 345 343 347 349 351 353 354 356 359 360 0 2 3 5 5 3 5 3 344 328 268 208 204 197 198 204 211 214 215 216
316 318 317 315 309 307 308 307 309 313 318 322 323 327 332 342 344 342 345 349 348 351 353 354 358 2 1 2 3 6 8 6 14 14 61 130 186 198 193 200 206 213 214 218 221
308 316 316 314 314 312 311 306 310 306 314 324 325 323 326 334 340 339 341 346 345 344 350 350 357 359 1 1 2 10 12 13 15 20 54 75 138 169 140 171 224 222 217 220 219
307 316 318 315 321 322 320 322 316 300 316 324 324 324 325 328 334 340 339 342 344 341 344 349 354 355 359 357 5 7 17 19 16 25 39 74 122 158 171 171 230 234 222 225 231
311 313 318 308 322 319 319 326 325 304 314 319 321 324 323 326 330 335 335 340 340 339 340 342 345 352 356 5 4 7 14 22 21 23 37 72 110 153 170 168 195 212 229 237 238
315 318 316 309 312 319 317 323 323 309 307 305 311 315 319 322 325 327 330 334 338 341 334 337 337 351 354 5 6 8 11 20 32 30 45 58 108 137 155 167 183 217 237 236 268
318 320 316 314 313 321 321 317 317 318 309 307 305 306 312 316 320 322 324 328 330 335 335 332 337 342 354 360 8 14 13 21 39 45 49 68 98 142 150 161 180 196 200 232 251
323 323 317 306 308 312 324 324 320 318 319 315 310 308 307 313 317 320 322 326 327 328 337 338 334 336 344 353 1 8 14 19 28 37 49 46 78 127 146 169 192 218 243 235 263
321 323 320 298 297 313 320 325 326 319 317 312 311 308 308 309 317 319 320 322 325 328 330 340 336 330 333 344 350 357 8 21 23 34 42 49 47 60 92 169 186 201 225 241 234
316 325 328 314 297 301 315 324 324 326 322 319 315 314 309 310 312 315 318 320 324 326 323 331 333 322 323 326 340 339 356 8 21 35 34 46 51 47 36 44 184 213 218 228 239
308 320 320 325 310 296 308 319 324 329 329 326 322 317 317 315 312 313 316 316 319 319 320 322 328 325 319 317 324 327 330 356 1 19 23 31 40 39 25 1 304 249 216 233 243
301 314 321 331 320 311 305 309 313 320 322 321 318 314 312 312 312 313 314 314 315 317 318 321 325 322 305 309 310 312 308 335 342 357 2 356 350 349 5 358 333 286 277 260 257
297 305 309 327 325 315 309 307 309 314 321 325 325 321 317 313 315 312 314 316 316 319 317 320 325 315 301 306 303 301 298 297 308 324 334 330 334 321 344 340 319 304 299 282 264
296 298 298 313 320 313 310 313 314 319 322 325 326 325 324 320 316 317 316 319 318 318 316 319 325 312 317 311 277 284 293 296 294 300 321 308 318 313 317 309 307 302 298 295 285
292 291 290 301 309 313 310 314 316 317 318 322 323 325 327 324 319 317 318 316 320 318 315 317 322 309 305 301 293 272 276 283 296 307 312 304 298 299 290 298 297 292 289 287 285
290 288 286 295 308 314 303 309 315 314 316 314 319 323 323 322 323 321 317 314 318 312 317 326 327 324 307 295 303 281 284 289 295 296 299 300 298 300 295 297 290 282 280 279 277
284 280 278 281 296 306 297 307 308 308 311 309 313 316 316 316 319 317 318 317 315 304 306 305 301 296 291 284 287 282 282 288 290 289 289 288 289 291 289 285 283 282 280 277 276